When you browse on this site, cookies collect data to enhance your experience and personalize the content and advertising you see.
Visit our Privacy Policy to learn more. By continuing to use the site, you agree to this use of cookies and data.
  • Em Portugal
  • Lista de países
  • Para 7 dias
  • Temperatura da água
  • Mapas de satélite
  • Mapa do tempo
  • Widgets de tempo
  • user-avatar
    Iniciar Sessão

    Previsão horária em Granowo

    Hoje, 16 Julho, Terça-feira

    Tempo Temperatura Precipitação Vento Pressão Humidade
    00:00 +14°C° 0 mm 2 m/s 746 mmHg 92%
    01:00 +14°C° 0 mm 2 m/s 746 mmHg 89%
    02:00 +14°C° 0 mm 2 m/s 746 mmHg 87%
    03:00 +14°C° 0 mm 2 m/s 745 mmHg 85%
    04:00 +12°C° 0 mm 3 m/s 745 mmHg 84%
    05:00 +13°C° 0 mm 3 m/s 745 mmHg 81%
    06:00 +13°C° 0 mm 4 m/s 745 mmHg 79%
    07:00 +14°C° 0 mm 4 m/s 745 mmHg 76%
    08:00 +14°C° 0 mm 5 m/s 745 mmHg 78%
    09:00 +15°C° 0 mm 5 m/s 745 mmHg 80%
    10:00 +15°C° 0 mm 5 m/s 745 mmHg 82%
    11:00 +17°C° 0.4 mm 5 m/s 745 mmHg 73%
    12:00 +19°C° 0.4 mm 5 m/s 744 mmHg 64%
    13:00 +21°C° 0.4 mm 6 m/s 744 mmHg 56%
    14:00 +21°C° 0.2 mm 6 m/s 744 mmHg 54%
    15:00 +21°C° 0.2 mm 6 m/s 745 mmHg 53%
    16:00 +21°C° 0.2 mm 5 m/s 745 mmHg 52%
    17:00 +20°C° 0 mm 5 m/s 745 mmHg 56%
    18:00 +19°C° 0 mm 4 m/s 744 mmHg 61%
    19:00 +18°C° 0 mm 3 m/s 744 mmHg 65%
    20:00 +15°C° 0 mm 4 m/s 744 mmHg 73%
    21:00 +14°C° 0 mm 4 m/s 744 mmHg 81%
    22:00 +13°C° 0 mm 4 m/s 744 mmHg 89%
    23:00 +13°C° 0 mm 4 m/s 744 mmHg 88%

    Amanhã, 17 Julho, Quarta-feira

    Tempo Temperatura Precipitação Vento Pressão Humidade
    00:00 +13°C° 0 mm 4 m/s 744 mmHg 87%
    01:00 +13°C° 0 mm 4 m/s 744 mmHg 86%
    02:00 +12°C° 0 mm 4 m/s 744 mmHg 89%
    03:00 +12°C° 0 mm 4 m/s 744 mmHg 91%
    04:00 +11°C° 0 mm 3 m/s 744 mmHg 94%
    05:00 +12°C° 0 mm 4 m/s 744 mmHg 87%
    06:00 +14°C° 0 mm 5 m/s 745 mmHg 79%
    07:00 +15°C° 0 mm 5 m/s 745 mmHg 72%
    08:00 +16°C° 0 mm 5 m/s 745 mmHg 67%
    09:00 +17°C° 0 mm 5 m/s 745 mmHg 61%
    10:00 +19°C° 0 mm 5 m/s 745 mmHg 56%
    11:00 +19°C° 0.1 mm 5 m/s 746 mmHg 57%
    12:00 +19°C° 0.1 mm 5 m/s 746 mmHg 59%
    13:00 +19°C° 0.1 mm 5 m/s 746 mmHg 60%
    14:00 +20°C° 0 mm 5 m/s 746 mmHg 58%
    15:00 +20°C° 0 mm 5 m/s 746 mmHg 57%
    16:00 +20°C° 0 mm 5 m/s 746 mmHg 55%
    17:00 +19°C° 0 mm 4 m/s 746 mmHg 59%
    18:00 +18°C° 0 mm 4 m/s 746 mmHg 64%
    19:00 +17°C° 0 mm 3 m/s 746 mmHg 68%
    20:00 +14°C° 0 mm 3 m/s 746 mmHg 75%
    21:00 +13°C° 0 mm 3 m/s 746 mmHg 81%
    22:00 +12°C° 0 mm 2 m/s 746 mmHg 88%
    23:00 +12°C° 0 mm 2 m/s 746 mmHg 90%

    Depois de amanhã, 18 Julho, Quinta-feira

    Tempo Temperatura Precipitação Vento Pressão Humidade
    00:00 +12°C° 0 mm 2 m/s 746 mmHg 92%
    01:00 +10°C° 0 mm 2 m/s 746 mmHg 94%
    02:00 +10°C° 0 mm 2 m/s 746 mmHg 94%
    03:00 +10°C° 0 mm 2 m/s 746 mmHg 94%
    04:00 +10°C° 0 mm 2 m/s 746 mmHg 94%
    05:00 +13°C° 0 mm 2 m/s 746 mmHg 86%
    06:00 +15°C° 0 mm 2 m/s 747 mmHg 78%
    07:00 +17°C° 0 mm 2 m/s 747 mmHg 70%
    08:00 +19°C° 0 mm 2 m/s 747 mmHg 63%
    09:00 +20°C° 0 mm 2 m/s 747 mmHg 57%
    10:00 +23°C° 0 mm 2 m/s 747 mmHg 50%
    11:00 +23°C° 0 mm 1 m/s 747 mmHg 49%
    12:00 +24°C° 0 mm 1 m/s 747 mmHg 48%
    13:00 +24°C° 0 mm 1 m/s 747 mmHg 47%
    14:00 +24°C° 0 mm 1 m/s 747 mmHg 49%
    15:00 +24°C° 0 mm 1 m/s 747 mmHg 50%
    16:00 +24°C° 0 mm 1 m/s 747 mmHg 51%
    17:00 +23°C° 0 mm 1 m/s 747 mmHg 56%
    18:00 +22°C° 0 mm 1 m/s 747 mmHg 62%
    19:00 +21°C° 0 mm 1 m/s 747 mmHg 67%
    20:00 +18°C° 0 mm 2 m/s 747 mmHg 72%
    21:00 +17°C° 0 mm 2 m/s 747 mmHg 77%
    22:00 +15°C° 0 mm 2 m/s 747 mmHg 82%
    23:00 +14°C° 0 mm 2 m/s 747 mmHg 84%

    19 Julho, Sexta-feira

    Tempo Temperatura Precipitação Vento Pressão Humidade
    00:00 +14°C° 0 mm 2 m/s 747 mmHg 85%
    01:00 +13°C° 0 mm 2 m/s 747 mmHg 87%
    02:00 +13°C° 0 mm 2 m/s 747 mmHg 88%
    03:00 +13°C° 0 mm 2 m/s 747 mmHg 88%
    04:00 +13°C° 0 mm 2 m/s 747 mmHg 89%
    05:00 +14°C° 0 mm 2 m/s 747 mmHg 83%
    06:00 +16°C° 0 mm 2 m/s 747 mmHg 77%
    07:00 +19°C° 0 mm 1 m/s 747 mmHg 71%
    08:00 +20°C° 0 mm 2 m/s 747 mmHg 64%
    09:00 +21°C° 0 mm 2 m/s 747 mmHg 58%
    10:00 +24°C° 0 mm 2 m/s 747 mmHg 51%
    11:00 +25°C° 0 mm 2 m/s 747 mmHg 49%
    12:00 +25°C° 0 mm 2 m/s 747 mmHg 46%
    13:00 +25°C° 0 mm 2 m/s 747 mmHg 44%
    14:00 +25°C° 0 mm 2 m/s 747 mmHg 45%
    15:00 +25°C° 0 mm 2 m/s 747 mmHg 47%
    16:00 +25°C° 0 mm 2 m/s 747 mmHg 48%
    17:00 +24°C° 0 mm 2 m/s 747 mmHg 54%
    18:00 +23°C° 0 mm 2 m/s 747 mmHg 59%
    19:00 +21°C° 0 mm 2 m/s 747 mmHg 64%
    20:00 +21°C° 0.2 mm 1 m/s 747 mmHg 70%
    21:00 +20°C° 0.2 mm 1 m/s 747 mmHg 76%
    22:00 +19°C° 0.2 mm 1 m/s 747 mmHg 81%
    23:00 +18°C° 0.5 mm 1 m/s 747 mmHg 83%

    20 Julho, Sábado

    Tempo Temperatura Precipitação Vento Pressão Humidade
    00:00 +17°C° 0.5 mm 2 m/s 747 mmHg 86%
    01:00 +17°C° 0.5 mm 2 m/s 747 mmHg 88%
    02:00 +16°C° 0.2 mm 2 m/s 747 mmHg 89%
    03:00 +16°C° 0.2 mm 1 m/s 747 mmHg 89%
    04:00 +15°C° 0.2 mm 1 m/s 747 mmHg 90%
    05:00 +18°C° 0 mm 1 m/s 747 mmHg 86%
    06:00 +19°C° 0 mm 1 m/s 748 mmHg 82%
    07:00 +20°C° 0 mm 1 m/s 748 mmHg 79%
    08:00 +22°C° 0.2 mm 1 m/s 748 mmHg 72%
    09:00 +23°C° 0.2 mm 1 m/s 748 mmHg 66%
    10:00 +25°C° 0.2 mm 1 m/s 748 mmHg 60%
    11:00 +25°C° 1.6 mm 1 m/s 748 mmHg 61%
    12:00 +25°C° 1.6 mm 2 m/s 748 mmHg 63%
    13:00 +25°C° 1.6 mm 2 m/s 748 mmHg 64%
    14:00 +25°C° 1.1 mm 2 m/s 748 mmHg 64%
    15:00 +25°C° 1.1 mm 2 m/s 748 mmHg 64%
    16:00 +25°C° 1.1 mm 2 m/s 748 mmHg 64%
    17:00 +24°C° 0.6 mm 2 m/s 748 mmHg 69%
    18:00 +23°C° 0.6 mm 2 m/s 748 mmHg 74%
    19:00 +22°C° 0.6 mm 1 m/s 748 mmHg 80%
    20:00 +21°C° 0.1 mm 1 m/s 748 mmHg 83%
    21:00 +20°C° 0.1 mm 1 m/s 748 mmHg 86%
    22:00 +19°C° 0.1 mm 1 m/s 748 mmHg 89%
    23:00 +18°C° 0 mm 1 m/s 748 mmHg 89%

    21 Julho, Domingo

    Tempo Temperatura Precipitação Vento Pressão Humidade
    00:00 +18°C° 0 mm 1 m/s 748 mmHg 89%
    01:00 +16°C° 0 mm 0 m/s 748 mmHg 89%
    02:00 +18°C° 0 mm 1 m/s 748 mmHg 90%
    03:00 +18°C° 0 mm 1 m/s 748 mmHg 90%
    04:00 +18°C° 0 mm 1 m/s 748 mmHg 90%
    05:00 +18°C° 0.2 mm 1 m/s 748 mmHg 88%
    06:00 +19°C° 0.2 mm 1 m/s 749 mmHg 87%
    07:00 +20°C° 0.2 mm 1 m/s 749 mmHg 85%
    08:00 +21°C° 0.3 mm 1 m/s 749 mmHg 79%
    09:00 +22°C° 0.3 mm 1 m/s 749 mmHg 72%
    10:00 +24°C° 0.3 mm 2 m/s 749 mmHg 65%
    11:00 +25°C° 0.4 mm 2 m/s 749 mmHg 62%
    12:00 +25°C° 0.4 mm 2 m/s 749 mmHg 59%
    13:00 +26°C° 0.4 mm 2 m/s 749 mmHg 56%
    14:00 +26°C° 0.7 mm 2 m/s 749 mmHg 58%
    15:00 +25°C° 0.7 mm 2 m/s 749 mmHg 61%
    16:00 +25°C° 0.7 mm 2 m/s 749 mmHg 63%
    17:00 +24°C° 0.4 mm 2 m/s 749 mmHg 69%
    18:00 +23°C° 0.4 mm 2 m/s 749 mmHg 75%
    19:00 +22°C° 0.4 mm 1 m/s 749 mmHg 80%
    20:00 +20°C° 0 mm 2 m/s 749 mmHg 85%
    21:00 +18°C° 0 mm 2 m/s 750 mmHg 89%
    22:00 +17°C° 0 mm 2 m/s 750 mmHg 93%
    23:00 +17°C° 0 mm 2 m/s 750 mmHg 94%
    Mostrar mais